Hourly Weather Roundup
Issued by NWS Central Illinois

Home | Current Version | Previous Version | Text Only | Print | Product List | Glossary On
Versions: 1 2 3 4 5 6 7 8 9 10 11 12 13 14 15 16 17 18 19 20 21 22 23 24 25 26 27 28 29 30 31 32 33 34 35 36 37 38 39 40 41 42 43 44 45 46 47 48 49 50
000
NZUS43 KILX 040210
HWRILX

AREA WEATHER ROUNDUP
NATIONAL WEATHER SERVICE, LINCOLN IL
900 PM CDT SUN MAY 03 2015


CITY           SKY/WX    TMP DP  RH WIND       PRES   REMARKS
BLOOMINGTON    CLEAR     71  50  47 S15       29.96R
CHAMPAIGN      CLEAR     70  45  40 S13       29.99R
DANVILLE       PTCLDY    70  44  40 S8        29.98S
DECATUR        PTCLDY    73  44  35 S14       29.98R
EFFINGHAM      CLEAR     69  42  37 SE5       30.03R
FLORA          CLEAR     62  47  56 S5        30.03R
GALESBURG      CLEAR     73  55  53 S8        29.88S
JACKSONVILLE   PTCLDY    76  49  38 S12       29.92S
LACON          PTCLDY    73  49  43 S9        29.88S
LAWRENCEVILLE  CLEAR     66  50  56 S8        30.04R
LITCHFIELD     MOCLDY    69  47  43 S12       29.98R
$$


CITY           SKY/WX    TMP DP  RH WIND       PRES   REMARKS
LINCOLN        CLEAR     74  48  39 S13       29.92S
MACOMB         PTCLDY    73  53  47 S7        29.90R
MATTOON        CLEAR     69  46  43 S8        30.00R
MT CARMEL AP   CLEAR     70  43  37 S7        30.04R
OLNEY-NOBLE AP CLEAR     68  45  42 S3        30.03R
PARIS          CLEAR     64  47  55 S6        30.03R
PEORIA         PTCLDY    74  50  42 S9        29.90R
PONTIAC        PTCLDY    74  49  41 S17       29.94F
RANTOUL        CLEAR     71  47  42 S12       29.98S
ROBINSON       CLEAR     67  47  48 S6        30.04R
SPRINGFIELD    PTCLDY    74  49  41 S14       29.95R
TAYLORVILLE    CLEAR     70  46  43 S13       29.97S
$$

...REGIONAL REPORTS...


CITY           SKY/WX    TMP DP  RH WIND       PRES   REMARKS
CHICAGO O`HARE TSTM      62  58  86 SE10      29.93S
KANKAKEE       CLOUDY    70  51  50 S10       29.96R
MOLINE         CLEAR     76  54  46 SW10      29.84R
MOUNT VERNON   MOCLDY   N/A N/A N/A S6        30.03R
PITTSFIELD     CLOUDY    75  52  44 S10G16    29.93R
QUINCY         PTCLDY    75  52  44 S10       29.89S
ROCKFORD       PTCLDY    64  55  72 SE13G21   29.88F
$$


CITY           SKY/WX    TMP DP  RH WIND       PRES   REMARKS
BURLINGTON     CLEAR     74  56  53 S10       29.85F
CEDAR RAPIDS   CLEAR     70  59  68 S9        29.82R
DES MOINES     CLOUDY    75  58  55 S5        29.78R
KIRKSVILLE     CLEAR     74  58  57 S12       29.87S
OTTUMWA        CLEAR     73  57  57 S10       29.80S
ST LOUIS       LGT RAIN  78  50  37 S8        29.97R
$$


CITY           SKY/WX    TMP DP  RH WIND       PRES   REMARKS
TERRE HAUTE    FAIR      68  48  48 S8        30.03R
EVANSVILLE     CLEAR     70  50  49 S5        30.06R
INDIANAPOLIS   MOCLDY    69  44  40 S9        30.04R
LAFAYETTE      MOCLDY    68  45  43 S5        30.01R
MADISON        MOCLDY    66  55  67 S10       29.86R
MILWAUKEE      PTCLDY    66  53  63 S12G22    29.87F
$$




USA.gov is the U.S. government's official web portal to all federal, state and local government web resources and services.